Simultaneous Nadir Overpasses (SNOs) Predictions

Prediction of SNOs between NOAA-15 and METOP-C Satellite Orbit:

Table of predicted SNOs for the next 14.0 days since TLE Epoch: 7/10/2021
Index Date (NOAA-15) Time (NOAA-15) Lat,Lon (NOAA-15) SZA (NOAA-15 ) Date (METOP-C) Time (METOP-C) Lat,Lon (METOP-C) SZA (METOP-C ) Distance(km) Time Diff (sec)
1 07/18/2021 04:27:07 81.03, 150.37 61.78 07/18/2021 04:25:55 81.02, 150.35 61.75 0.98 72
2 07/18/2021 05:17:34 -81.02, -42.18 118.21 07/18/2021 05:16:36 -81.02, -42.19 118.23 0.06 58
3 07/18/2021 06:08:09 81.02, 125.17 61.80 07/18/2021 06:07:16 81.03, 125.21 61.79 0.75 53
4 07/18/2021 06:58:36 -81.02, -67.38 118.19 07/18/2021 06:57:57 -81.03, -67.33 118.20 1.58 39
5 07/18/2021 07:49:11 81.02, 99.98 61.82 07/18/2021 07:48:37 81.03, 100.07 61.82 2.30 34
6 07/18/2021 08:39:39 -81.03, -92.94 118.20 07/18/2021 08:39:19 -81.02, -92.83 118.20 2.03 20
7 07/18/2021 09:30:14 81.03, 74.42 61.81 07/18/2021 09:29:59 81.03, 74.57 61.82 2.60 15
8 07/18/2021 10:20:41 -81.03,-118.13 118.18 07/18/2021 10:20:40 -81.03,-117.97 118.17 2.75 1
9 07/18/2021 11:11:16 81.03, 49.23 61.83 07/18/2021 11:11:21 81.02, 49.06 61.81 3.11 5
10 07/18/2021 12:01:43 -81.03,-143.32 118.17 07/18/2021 12:02:02 -81.03,-143.48 118.18 2.71 19
11 07/18/2021 12:52:18 81.03, 24.04 61.84 07/18/2021 12:52:42 81.03, 23.93 61.84 2.00 24
12 07/18/2021 13:42:45 -81.02,-168.51 118.15 07/18/2021 13:43:23 -81.03,-168.61 118.14 2.13 38
13 07/18/2021 14:33:20 81.02, -1.15 61.86 07/18/2021 14:34:03 81.04, -1.21 61.88 1.85 43
14 07/18/2021 15:23:48 -81.04, 165.93 118.16 07/18/2021 15:24:45 -81.03, 165.88 118.15 1.37 57
15 07/18/2021 16:14:23 81.04, -26.71 61.86 07/18/2021 16:15:25 81.03, -26.72 61.87 0.72 62



Historial Predications of SNOs between NOAA-15 and METOP-C
